Notices

What's New in latest Release from April 7th, 2021:

- Updated Glossary, including Speed of Maximum Gust, and Total Hourly Precipitation

- Updated national and regional climate services offices contacts and prices information

- Addition of station inventory lists for 1981-2010, 1971-2000, and 1961-1990 Normals.

If you haven't already, please take our survey and provide feedback about our website: https://eccc.sondage-survey.ca/f/LanguageSelection.aspx?s=442ca660-fcf1-47c0-95a9-59707d6fd709

Hourly Data Report for January 16, 2020

SATURNA ISLAND CS
BRITISH COLUMBIA
Current Station Operator: ECCC - MSC

48°47'02.067" N
123°02'41.082" W
24.40 m
1017101
71473
WEZ

Download Data

Hourly Data (January 2020)
Hourly Data Report for January 16, 2020
TIME
LST
Temp Definition
°C
Dew Point Definition
°C
Rel Hum Definition
%
Precip. Amount Definition
mm

Wind Dir Definition
10's deg

Wind Spd Definition
km/h
Visibility Definition
km
Stn Press Definition
kPa
Hmdx Definition


Wind Chill Definition


Weather Definition


00:00 6.2 2.0 74 0.0 17 76   98.98     LegendNANA
01:00 6.2 2.4 76 0.0 18 68   99.12     LegendNANA
02:00 6.1 3.1 81 0.0 18 53   99.32     LegendNANA
03:00 6.0 3.2 82 0.0 18 52   99.42     LegendNANA
04:00 5.6 2.8 83 0.0 19 44   99.51     LegendNANA
05:00 5.7 2.8 82 0.0 18 44   99.55     LegendNANA
06:00 5.6 3.0 83 0.0 17 35   99.65     LegendNANA
07:00 5.0 2.6 84 0.0 16 33   99.72     LegendNANA
08:00 4.9 2.6 85 0.0 16 30   99.79     LegendNANA
09:00 5.0 2.6 84 0.0 15 25   99.89     LegendNANA
10:00 4.6 2.7 87 0.2 17 21   99.95     LegendNANA
11:00 4.7 0.1 72 0.0 25 11   100.08     LegendNANA
12:00 3.2 1.0 86 0.4 21 20   100.08     LegendNANA
13:00 4.8 -0.8 67 0.0 25 14   100.07     LegendNANA
14:00 5.1 -1.4 62 0.0 23 16   100.11     LegendNANA
15:00 4.9 -1.9 61 0.0 23 20   100.16     LegendNANA
16:00 4.1 -3.0 60 0.0 27 8   100.25     LegendNANA
17:00 3.0 -3.3 63 0.0 30 5   100.34     LegendNANA
18:00 2.4 -3.9 63 0.0 26 6   100.39     LegendNANA
19:00 2.4 -3.9 63 0.0 26 4   100.47     LegendNANA
20:00 2.0 -2.2 74 0.0 7 13   100.50     LegendNANA
21:00 2.7 -0.3 81 0.0 16 7   100.56     LegendNANA
22:00 2.7 -1.0 77 0.0 23 7   100.63     LegendNANA
23:00 2.4 -1.5 76 0.0 22 11   100.72     LegendNANA

Notes on Data Quality.

Legend

  • E = Estimated
  • M = Missing
  • NA = Not Available*
  • [empty] = Indicates an unobserved value
Date modified: